Date String (YYYY-MM-DD hh:mm:ss) UTC,Instrument flags,Ambient pressure (hPa),Sample flow (lpm),Bypass flow (lpm),Sample temperature (°C),Ambient temperature (°C),ASC tube jacket temperature (°C),LED temperature (°C),Box temperature (°C),Sample RH (%),Span deviation,Mass concentration (μg/m³),Mass concentration (μg/m³),Mass concentration (μg/m³)
DateTimeUTC,F1_M11,P_M11,Q1_M11,Q2_M11,T1_M11,T2_M11,T3_M11,T4_M11,T5_M11,U1_M11,ZSPAN_M11,X0_M11,X2_M11,X1_M11
2022-03-26 19:00:00,,0822.9,4.99,0.00,30.6,29.9,00.0,39.4,32.4,09.0,0000.0,0012.49,0004.07,0002.45
2022-03-26 19:01:00,,0822.9,5.00,0.00,30.6,29.9,00.0,39.4,32.4,08.7,0000.0,0011.78,0003.99,0002.40
2022-03-26 19:02:00,,0822.9,5.00,0.00,30.6,30.0,00.0,39.4,32.4,09.0,0000.0,0011.43,0003.96,0002.34
2022-03-26 19:03:00,,0822.8,4.99,0.00,30.7,30.0,00.0,39.5,32.4,09.1,0000.0,0010.81,0003.94,0002.30
2022-03-26 19:04:00,,0822.8,5.00,0.00,30.7,30.0,00.0,39.5,32.4,08.9,0000.0,0010.49,0003.92,0002.25
2022-03-26 19:05:00,,0822.8,5.01,0.00,30.7,30.0,00.0,39.5,32.4,08.8,0000.0,0010.18,0003.85,0002.23
2022-03-26 19:06:00,,0822.8,4.98,0.00,30.7,30.0,00.0,39.5,32.4,09.0,0000.0,0010.04,0003.78,0002.18
2022-03-26 19:07:00,,0822.7,5.01,0.00,30.7,30.1,00.0,39.5,32.5,09.5,0000.0,0010.08,0003.76,0002.14
2022-03-26 19:08:00,,0822.8,4.98,0.00,30.8,29.8,00.0,39.6,32.4,09.2,0000.0,0010.33,0003.75,0002.10
2022-03-26 19:09:00,,0822.8,5.00,0.00,30.7,27.8,00.0,39.6,32.1,09.1,0000.0,0011.33,0003.71,0002.06
2022-03-26 19:10:00,,0822.8,5.01,0.00,30.5,26.0,00.0,39.5,31.8,09.1,0000.0,0012.58,0003.74,0002.03
2022-03-26 19:11:00,,0822.7,4.99,0.00,30.4,26.1,00.0,39.5,31.7,09.2,0000.0,0012.50,0003.83,0002.02
2022-03-26 19:12:00,,0822.7,5.00,0.00,30.3,26.6,00.0,39.4,31.7,09.1,0000.0,0012.09,0003.88,0002.04
2022-03-26 19:13:00,,0822.7,5.01,0.00,30.3,27.1,00.0,39.4,31.7,09.0,0000.0,0012.27,0003.89,0002.06
2022-03-26 19:14:00,,0822.7,4.99,0.00,30.2,27.5,00.0,39.3,31.8,09.1,0000.0,0012.32,0003.91,0002.08
2022-03-26 19:15:00,,0822.7,5.01,0.00,30.2,27.9,00.0,39.3,31.8,09.4,0000.0,0012.43,0003.95,0002.08
2022-03-26 19:16:00,,0822.7,4.99,0.00,30.2,28.2,00.0,39.2,31.8,09.7,0000.0,0013.44,0003.95,0002.08
2022-03-26 19:17:00,,0822.7,5.01,0.00,30.2,28.5,00.0,39.2,31.9,09.3,0000.0,0014.06,0003.94,0002.07
2022-03-26 19:18:00,,0822.7,4.99,0.00,30.3,28.7,00.0,39.2,31.9,09.3,0000.0,0013.78,0003.93,0002.05
2022-03-26 19:19:00,,0822.6,5.02,0.00,30.3,28.9,00.0,39.2,32.0,09.3,0000.0,0013.60,0003.87,0002.04
2022-03-26 19:20:00,,0822.6,5.00,0.00,30.3,29.0,00.0,39.2,32.0,08.5,0000.0,0012.97,0003.87,0002.03
2022-03-26 19:21:00,,0822.6,4.99,0.00,30.3,29.1,00.0,39.2,32.0,08.2,0000.0,0011.49,0003.84,0002.01
2022-03-26 19:22:00,,0822.6,5.00,0.00,30.3,29.2,00.0,39.2,32.0,08.1,0000.0,0011.38,0003.76,0001.95
2022-03-26 19:23:00,,0822.7,4.98,0.00,30.4,29.3,00.0,39.2,32.1,07.9,0000.0,0011.32,0003.68,0001.89
2022-03-26 19:24:00,,0822.6,5.01,0.00,30.4,29.3,00.0,39.2,32.1,08.3,0000.0,0011.03,0003.65,0001.82
2022-03-26 19:25:00,,0822.6,4.99,0.00,30.4,29.4,00.0,39.3,32.1,08.0,0000.0,0010.98,0003.61,0001.76
2022-03-26 19:26:00,,0822.6,5.00,0.00,30.4,29.4,00.0,39.3,32.1,07.9,0000.0,0010.83,0003.53,0001.70
2022-03-26 19:27:00,,0822.7,5.01,0.00,30.4,29.4,00.0,39.3,32.1,08.1,0000.0,0010.12,0003.50,0001.65
2022-03-26 19:28:00,,0822.7,4.99,0.00,30.5,29.4,00.0,39.3,32.2,07.7,0000.0,0009.37,0003.46,0001.60
2022-03-26 19:29:00,,0822.6,5.01,0.00,30.5,29.5,00.0,39.3,32.2,07.6,0000.0,0010.19,0003.44,0001.58
2022-03-26 19:30:00,,0822.7,4.99,0.00,30.5,29.5,00.0,39.3,32.2,07.7,0000.0,0009.95,0003.41,0001.53
2022-03-26 19:31:00,,0822.7,4.99,0.00,30.5,29.6,00.0,39.4,32.2,07.5,0000.0,0009.75,0003.37,0001.49
2022-03-26 19:32:00,,0822.7,5.00,0.00,30.6,29.6,00.0,39.4,32.3,07.8,0000.0,0009.71,0003.34,0001.46
2022-03-26 19:33:00,,0822.7,5.02,0.00,30.6,29.1,00.0,39.4,32.2,07.7,0000.0,0009.76,0003.29,0001.44
2022-03-26 19:34:00,,0822.6,5.00,0.00,30.5,26.9,00.0,39.4,31.7,07.5,0000.0,0009.55,0003.27,0001.43
2022-03-26 19:35:00,,0822.7,4.99,0.00,30.3,26.0,00.0,39.4,31.5,07.3,0000.0,0009.50,0003.22,0001.43
2022-03-26 19:36:00,,0822.6,5.01,0.00,30.2,26.4,00.0,39.3,31.5,07.5,0000.0,0009.40,0003.17,0001.42
2022-03-26 19:37:00,,0822.6,5.01,0.00,30.1,26.8,00.0,39.2,31.5,07.6,0000.0,0009.63,0003.13,0001.41
2022-03-26 19:38:00,,0822.6,5.00,0.00,30.1,27.3,00.0,39.2,31.6,07.7,0000.0,0009.35,0003.12,0001.41
2022-03-26 19:39:00,,0822.6,5.00,0.00,30.1,27.6,00.0,39.2,31.7,07.6,0000.0,0009.00,0003.16,0001.42
2022-03-26 19:40:00,,0822.6,4.99,0.00,30.1,28.0,00.0,39.1,31.7,07.9,0000.0,0008.36,0003.16,0001.41
2022-03-26 19:41:00,,0822.5,5.01,0.00,30.1,28.2,00.0,39.1,31.7,07.8,0000.0,0008.40,0003.12,0001.40
2022-03-26 19:42:00,,0822.5,5.00,0.00,30.1,28.4,00.0,39.1,31.8,08.0,0000.0,0008.30,0003.06,0001.40
2022-03-26 19:43:00,,0822.5,5.00,0.00,30.1,28.6,00.0,39.1,31.8,07.9,0000.0,0008.45,0003.05,0001.41
2022-03-26 19:44:00,,0822.5,5.00,0.00,30.1,28.7,00.0,39.1,31.8,07.7,0000.0,0009.22,0003.07,0001.42
2022-03-26 19:45:00,,0822.5,4.99,0.00,30.2,28.8,00.0,39.1,31.9,07.8,0000.0,0009.73,0003.12,0001.42
2022-03-26 19:46:00,,0822.5,5.00,0.00,30.2,28.9,00.0,39.1,31.9,07.5,0000.0,0009.72,0003.10,0001.42
2022-03-26 19:47:00,,0822.6,5.00,0.00,30.2,28.9,00.0,39.1,31.9,07.4,0000.0,0009.67,0003.12,0001.43
2022-03-26 19:48:00,,0822.6,5.02,0.00,30.2,29.0,00.0,39.1,31.9,07.4,0000.0,0009.43,0003.13,0001.44
2022-03-26 19:49:00,,0822.6,4.99,0.00,30.2,29.1,00.0,39.1,32.0,07.5,0000.0,0009.24,0003.11,0001.44
2022-03-26 19:50:00,,0822.6,5.00,0.00,30.3,29.1,00.0,39.1,32.0,07.3,0000.0,0009.84,0003.03,0001.40
2022-03-26 19:51:00,,0822.6,5.00,0.00,30.3,29.2,00.0,39.1,32.0,07.2,0000.0,0009.95,0003.05,0001.40
2022-03-26 19:52:00,,0822.6,5.00,0.00,30.3,29.2,00.0,39.2,32.0,07.2,0000.0,0009.86,0003.11,0001.41
2022-03-26 19:53:00,,0822.6,4.99,0.00,30.3,29.3,00.0,39.2,32.1,07.3,0000.0,0010.01,0003.12,0001.42
2022-03-26 19:54:00,,0822.6,5.01,0.00,30.4,29.4,00.0,39.2,32.1,07.7,0000.0,0010.29,0003.10,0001.42
2022-03-26 19:55:00,,0822.6,5.00,0.00,30.4,29.4,00.0,39.2,32.1,07.6,0000.0,0009.92,0003.09,0001.42
2022-03-26 19:56:00,,0822.6,4.98,0.00,30.4,29.3,00.0,39.2,32.1,07.5,0000.0,0009.40,0003.12,0001.42
2022-03-26 19:57:00,,0822.5,5.00,0.00,30.4,27.6,00.0,39.2,31.8,07.6,0000.0,0009.39,0003.16,0001.43
2022-03-26 19:58:00,,0822.5,5.00,0.00,30.2,25.8,00.0,39.2,31.5,07.5,0000.0,0009.41,0003.19,0001.44
2022-03-26 19:59:00,,0822.5,5.01,0.00,30.1,25.8,00.0,39.2,31.4,07.6,0000.0,0009.48,0003.22,0001.43
